GW2413 Weather Reports


time (UTC)temp
C
wind
direction
speed
KPH
gust
KPH
rain 1hr
cm
rain 24hr
cm
rain mn
cm
humidity
%
barometer
mb
20260505063437 15 153 0.0 0.0 0.00 0.00 0.00 68 1010.9
20260505062933 15 154 0.0 0.0 0.00 0.00 0.00 67 1010.9
20260505062431 15 153 0.0 0.0 0.00 0.00 0.00 67 1011.0
20260505061927 14 147 0.0 0.0 0.00 0.00 0.00 68 1010.9
20260505061426 14 158 0.0 0.0 0.00 0.00 0.00 69 1011.0
20260505060923 13 131 0.0 0.0 0.00 0.00 0.00 72 1011.0
20260505060420 14 131 0.0 0.0 0.00 0.00 0.00 71 1010.9
20260505055916 14 131 0.0 0.0 0.00 0.00 0.00 70 1010.8
20260505055412 15 131 0.0 0.0 0.00 0.00 0.00 69 1010.8
20260505054909 15 131 0.0 0.0 0.00 0.00 0.00 69 1010.8
20260505054406 15 131 0.0 0.0 0.00 0.00 0.00 70 1010.8
20260505053904 14 131 0.0 0.0 0.00 0.00 0.00 71 1011.0
20260505053401 14 131 0.0 0.0 0.00 0.00 0.00 72 1010.9
20260505052858 14 131 0.0 0.0 0.00 0.00 0.00 72 1010.8
20260505052355 14 131 0.0 0.0 0.00 0.00 0.00 72 1010.9
20260505051852 14 131 0.0 0.0 0.00 0.00 0.00 71 1011.0
20260505051349 15 131 0.0 0.0 0.00 0.00 0.00 70 1010.9
20260505050847 15 131 0.0 0.0 0.00 0.00 0.00 69 1010.8
20260505050346 15 131 0.0 1.6 0.00 0.00 0.00 68 1010.8
20260505041313 17 138 0.0 0.0 0.00 0.00 0.00 60 1011.0
20260505040810 17 285 0.0 1.6 0.00 0.00 0.00 60 1011.2
20260505040307 17 143 0.0 0.0 0.00 0.00 0.00 60 1010.9
20260505035804 17 147 0.0 0.0 0.00 0.00 0.00 61 1011.1
20260505035259 17 148 0.0 0.0 0.00 0.00 0.00 60 1011.1
20260505034757 17 154 0.0 0.0 0.00 0.00 0.00 59 1011.0
20260505034254 17 135 0.0 1.6 0.00 0.00 0.00 60 1010.9
20260505033750 17 135 0.0 0.0 0.00 0.00 0.00 58 1010.8
20260505033248 17 144 0.0 0.0 0.00 0.00 0.00 58 1011.0
20260505032746 17 144 0.0 0.0 0.00 0.00 0.00 57 1010.8
20260505032241 18 153 0.0 0.0 0.00 0.00 0.00 56 1010.6
20260505031739 18 154 0.0 0.0 0.00 0.00 0.00 56 1010.9
20260505031235 18 160 0.0 0.0 0.00 0.00 0.00 55 1010.8
20260505030732 18 161 0.0 0.0 0.00 0.00 0.00 55 1011.0
20260505030228 18 168 1.6 1.6 0.00 0.00 0.00 55 1011.0
20260505025724 17 161 0.0 0.0 0.00 0.00 0.00 55 1010.9
20260505025223 17 161 0.0 0.0 0.00 0.00 0.00 54 1010.6
20260505024721 18 165 0.0 0.0 0.00 0.00 0.00 53 1010.9
20260505024217 18 165 0.0 0.0 0.00 0.00 0.00 52 1010.7
20260505023715 18 165 0.0 0.0 0.00 0.00 0.00 50 1010.9
20260505023212 19 165 0.0 0.0 0.00 0.00 0.00 49 1010.7
20260505022709 19 165 0.0 0.0 0.00 0.00 0.00 49 1010.9
20260505022206 19 167 1.6 1.6 0.00 0.00 0.00 48 1010.6
20260505021703 19 151 0.0 0.0 0.00 0.00 0.00 48 1010.7
20260505021200 19 158 0.0 0.0 0.00 0.00 0.00 49 1010.7
20260505020655 19 160 0.0 1.6 0.00 0.00 0.00 49 1010.6
20260505020151 19 149 1.6 1.6 0.00 0.00 0.00 48 1010.5
20260505015649 19 161 0.0 0.0 0.00 0.00 0.00 49 1010.6
20260505015145 20 172 0.0 0.0 0.00 0.00 0.00 48 1010.8
20260505014642 20 107 0.0 0.0 0.00 0.00 0.00 49 1010.4
20260505014139 20 120 3.2 3.2 0.00 0.00 0.00 48 1010.6
20260505013636 20 129 0.0 0.0 0.00 0.00 0.00 49 1010.5
20260505013133 20 133 1.6 3.2 0.00 0.00 0.00 49 1010.2
20260505012632 20 141 3.2 4.8 0.00 0.00 0.00 48 1010.5
20260505012128 20 139 1.6 1.6 0.00 0.00 0.00 47 1010.4
20260505011624 20 110 1.6 1.6 0.00 0.00 0.00 47 1010.0
20260505011122 20 134 0.0 0.0 0.00 0.00 0.00 47 1010.3
20260505010617 21 135 0.0 1.6 0.00 0.00 0.00 46 1010.2
20260505010114 21 128 0.0 0.0 0.00 0.00 0.00 46 1010.3
20260505005610 21 110 0.0 0.0 0.00 0.00 0.00 45 1010.3
20260505005107 21 125 0.0 0.0 0.00 0.00 0.00 44 1010.3
20260505004604 21 147 0.0 0.0 0.00 0.00 0.00 43 1010.2
20260505004101 21 137 0.0 0.0 0.00 0.00 0.00 42 1010.1
20260505003558 21 79 0.0 0.0 0.00 0.00 0.00 42 1010.0
20260505003055 21 106 0.0 1.6 0.00 0.00 0.00 42 1009.9
20260505002555 21 139 0.0 1.6 0.00 0.00 0.00 41 1010.1
20260505002049 22 102 0.0 0.0 0.00 0.00 0.00 40 1009.7
20260505001546 22 108 1.6 1.6 0.00 0.00 0.00 39 1009.7
20260505001043 22 164 4.8 4.8 0.00 0.00 0.00 40 1009.9
20260505000541 22 125 1.6 1.6 0.00 0.00 0.00 40 1010.0
20260505000038 22 157 8.0 11.3 0.00 0.00 0.00 39 1009.8
20260504235535 22 142 0.0 0.0 0.00 0.00 0.00 39 1009.9
20260504235031 22 210 3.2 4.8 0.00 0.00 0.00 39 1009.9
20260504234528 22 152 3.2 3.2 0.00 0.00 0.00 38 1009.6
20260504234025 22 100 0.0 0.0 0.00 0.00 0.00 39 1009.5
20260504233521 22 108 0.0 1.6 0.00 0.00 0.00 39 1009.6
20260504233018 22 144 1.6 1.6 0.00 0.00 0.00 38 1009.9
20260504232515 23 239 1.6 3.2 0.00 0.00 0.00 38 1009.7
20260504232012 22 99 6.4 11.3 0.00 0.00 0.00 37 1009.6
20260504231509 23 198 3.2 3.2 0.00 0.00 0.00 37 1009.6
20260504231005 23 134 4.8 8.0 0.00 0.00 0.00 36 1009.7
20260504230501 23 120 1.6 1.6 0.00 0.00 0.00 36 1009.6
20260504230000 23 261 3.2 4.8 0.00 0.00 0.00 36 1009.5
20260504225457 23 158 1.6 3.2 0.00 0.00 0.00 35 1009.7
20260504224954 23 296 1.6 3.2 0.00 0.00 0.00 35 1009.5
20260504224450 23 133 4.8 9.7 0.00 0.00 0.00 35 1009.5
20260504223947 23 202 8.0 16.1 0.00 0.00 0.00 34 1009.5
20260504223444 23 190 8.0 11.3 0.00 0.00 0.00 34 1009.5
20260504222939 24 217 4.8 8.0 0.00 0.00 0.00 34 1009.6
20260504222437 24 137 1.6 1.6 0.00 0.00 0.00 34 1009.6
20260504221935 24 217 11.3 16.1 0.00 0.00 0.00 34 1009.4
20260504221431 24 108 1.6 3.2 0.00 0.00 0.00 34 1009.4
20260504220928 24 148 4.8 4.8 0.00 0.00 0.00 34 1009.4
20260504220425 24 192 0.0 1.6 0.00 0.00 0.00 35 1009.5
20260504215922 24 147 1.6 1.6 0.00 0.00 0.00 34 1009.5
20260504215419 25 259 6.4 11.3 0.00 0.00 0.00 34 1009.7
20260504214915 25 139 3.2 3.2 0.00 0.00 0.00 34 1009.6
20260504214412 25 288 3.2 4.8 0.00 0.00 0.00 33 1009.4
20260504213909 25 240 4.8 4.8 0.00 0.00 0.00 33 1009.6
20260504213404 24 229 1.6 3.2 0.00 0.00 0.00 33 1009.6
20260504212902 24 265 3.2 4.8 0.00 0.00 0.00 34 1009.7
20260504212358 25 167 9.7 16.1 0.00 0.00 0.00 33 1009.6
20260504211856 25 124 1.6 3.2 0.00 0.00 0.00 34 1009.7
20260504211352 25 118 3.2 4.8 0.00 0.00 0.00 33 1009.5
20260504210849 25 144 4.8 8.0 0.00 0.00 0.00 32 1009.8
20260504210346 25 157 3.2 3.2 0.00 0.00 0.00 33 1009.4
20260504205843 25 152 4.8 8.0 0.00 0.00 0.00 32 1009.5
20260504205341 25 201 11.3 12.9 0.00 0.00 0.00 31 1009.6
20260504204839 25 142 0.0 1.6 0.00 0.00 0.00 32 1009.6
20260504204337 25 82 1.6 1.6 0.00 0.00 0.00 31 1009.7
20260504203836 26 188 1.6 3.2 0.00 0.00 0.00 30 1009.6
20260504203333 25 120 1.6 1.6 0.00 0.00 0.00 31 1009.6
20260504202828 26 174 1.6 1.6 0.00 0.00 0.00 29 1009.6
20260504202326 26 107 3.2 4.8 0.00 0.00 0.00 30 1009.8
20260504201822 26 117 0.0 0.0 0.00 0.00 0.00 31 1009.8
20260504201320 26 214 4.8 8.0 0.00 0.00 0.00 29 1009.9
20260504200817 26 164 1.6 1.6 0.00 0.00 0.00 30 1009.9
20260504200314 26 110 1.6 3.2 0.00 0.00 0.00 30 1010.1
20260504195810 26 262 6.4 8.0 0.00 0.00 0.00 28 1010.4
20260504195306 26 226 1.6 3.2 0.00 0.00 0.00 28 1010.3
20260504194803 25 192 3.2 4.8 0.00 0.00 0.00 31 1010.2
20260504194259 25 222 8.0 11.3 0.00 0.00 0.00 30 1010.2
20260504193755 26 248 4.8 8.0 0.00 0.00 0.00 29 1010.3
20260504193253 25 199 6.4 11.3 0.00 0.00 0.00 30 1010.4
20260504192751 26 238 3.2 8.0 0.00 0.00 0.00 29 1010.6
20260504192249 26 88 1.6 1.6 0.00 0.00 0.00 29 1010.5
20260504191747 26 271 6.4 8.0 0.00 0.00 0.00 30 1010.7
20260504191244 25 279 3.2 8.0 0.00 0.00 0.00 30 1010.7
20260504190739 25 85 1.6 3.2 0.00 0.00 0.00 31 1010.9
20260504190236 25 123 1.6 1.6 0.00 0.00 0.00 30 1011.0
20260504185732 25 81 3.2 4.8 0.00 0.00 0.00 31 1010.9
20260504185229 25 107 4.8 9.7 0.00 0.00 0.00 31 1011.2
20260504184725 25 206 3.2 3.2 0.00 0.00 0.00 31 1011.4
20260504184221 25 122 4.8 8.0 0.00 0.00 0.00 32 1011.5
20260504183717 23 108 1.6 3.2 0.00 0.00 0.00 32 1011.4
20260504183214 25 222 9.7 11.3 0.00 0.00 0.00 30 1011.5
20260504182713 25 133 3.2 4.8 0.00 0.00 0.00 31 1011.7
20260504182209 25 130 1.6 1.6 0.00 0.00 0.00 33 1011.6
20260504181707 25 134 1.6 1.6 0.00 0.00 0.00 32 1011.9
20260504181204 25 105 3.2 3.2 0.00 0.00 0.00 32 1011.9
20260504180703 25 272 1.6 8.0 0.00 0.00 0.00 33 1012.0
20260504180202 25 146 1.6 3.2 0.00 0.00 0.00 33 1012.0
20260504175658 24 145 0.0 1.6 0.00 0.00 0.00 33 1012.0
20260504175155 24 170 1.6 1.6 0.00 0.00 0.00 33 1012.1
20260504174653 23 170 3.2 3.2 0.00 0.00 0.00 32 1012.3
20260504174150 23 305 3.2 3.2 0.00 0.00 0.00 33 1012.3
20260504173647 23 205 6.4 9.7 0.00 0.00 0.00 34 1012.1
20260504173144 23 199 6.4 9.7 0.00 0.00 0.00 33 1012.1
20260504172641 23 224 3.2 4.8 0.00 0.00 0.00 34 1012.6
20260504172137 22 241 3.2 4.8 0.00 0.00 0.00 33 1012.7
20260504171633 23 150 4.8 4.8 0.00 0.00 0.00 34 1012.5
20260504171131 22 231 1.6 3.2 0.00 0.00 0.00 34 1012.7
20260504170627 22 192 8.0 12.9 0.00 0.00 0.00 34 1012.7
20260504170125 23 243 4.8 8.0 0.00 0.00 0.00 35 1013.0
20260504151010 21 238 3.2 4.8 0.00 0.00 0.00 37 1014.3
20260504150508 21 221 4.8 4.8 0.00 0.00 0.00 35 1014.1
20260504140933 18 167 1.6 1.6 0.00 0.00 0.00 42 1014.1
20260504140430 17 101 0.0 1.6 0.00 0.00 0.00 43 1014.2
20260504130355 14 212 4.8 4.8 0.00 0.00 0.00 49 1015.0
20260504120318 11 127 3.2 3.2 0.00 0.00 0.00 61 1015.1
20260504110242 10 92 0.0 0.0 0.00 0.00 0.00 67 1015.6
20260504100200 10 111 0.0 0.0 0.00 0.00 0.00 61 1015.3
20260504090122 10 156 3.2 3.2 0.00 0.00 0.00 62 1015.3
20260504081552 10 119 0.0 0.0 0.00 0.00 0.00 63 1015.5
20260504081048 10 123 0.0 0.0 0.00 0.00 0.00 62 1015.5
20260504080545 10 118 0.0 0.0 0.00 0.00 0.00 62 1015.5